Location: Bruderhein
(53.8035°N, 112.9265°W)
Time: 10:49:15
(UTC+00:00)

BEESAT - Pass Details

Date: 07 April 2023
Orbit: 696 x 706 km, 98.5° (Epoch: 29 May)

Event Time Altitude Azimuth Distance (km) Brightness Sun altitude
Rises 04:34:12 0° 18° (NNE) 3,113 ? -18.7°
Reaches altitude 10° 04:36:31 10° 22° (NNE) 2,188 ? -18.9°
Maximum altitude 04:41:14 57° 101° (ESE) 835 ? -19.5°
Enters shadow 04:42:41 40° 157° (SSE) 1,039 ? -19.6°
